Location: Nasgenstadt
(48.2786°N, 9.7553°E)
Time: 18:00:02
(UTC+01:00)

Envisat - Visible Passes

Search period start: 23 November 2017 00:00
Search period end: 03 December 2017 00:00
Orbit: 764 x 766 km, 98.2° (Epoch: 23 November)

Date Brightness Start Highest point End Pass type
(mag) Time Alt. Az. Time Alt. Az. Time Alt. Az.
23 Nov 5.1 19:01:51 13° N 19:01:51 13° N 19:02:31 10° N visible
24 Nov 5.2 18:24:47 10° NNE 18:24:47 10° NNE 18:24:55 10° NNE visible
24 Nov 5.5 20:04:59 12° NNW 20:04:59 12° NNW 20:05:18 10° NNW visible
25 Nov 5.3 19:27:55 13° N 19:27:55 13° N 19:28:26 10° N visible
26 Nov 5.2 18:50:50 12° N 18:50:50 12° N 18:51:13 10° N visible
27 Nov 5.5 19:53:57 11° NNW 19:53:57 11° NNW 19:54:10 10° NNW visible
28 Nov 5.3 19:16:53 12° N 19:16:53 12° N 19:17:12 10° N visible
29 Nov 5.2 18:39:47 10° NNE 18:39:47 10° NNE 18:39:52 10° NNE visible
30 Nov 5.5 19:42:54 11° N 19:42:54 11° N 19:43:01 10° N visible
01 Dec 5.3 19:05:48 11° N 19:05:48 11° N 19:05:57 10° N visible
